RH
4 4 4 4 4 4 4 4 4 3 4 3 3 3 3 3 3 3 2 2 2 2 3 4 3 3 11 22 29 32 31 30 28 29 24 10 7 9 10 11 12 10 14 19 14 15 15 15 10 18 42 42 40 54 63 65 66 65 61 66 70 65 60 52 44 43 49 53 65 67 63 76 79 73 71 66 59 54 58 59 62 63 64 72 77 82 86 87
4 4 4 4 4 3 4 3 3 3 3 3 3 3 3 3 2 3 2 2 2 2 3 4 4 2 5 14 23 29 31 30 29 28 20 11 12 11 9 9 13 12 11 14 14 13 12 11 9 19 40 43 37 44 51 51 55 60 58 62 64 57 50 42 37 41 46 48 59 61 57 69 71 62 57 56 56 54 57 59 61 66 69 75 79 84 88 90
4 4 4 4 4 4 4 3 3 3 3 3 3 3 3 3 2 2 2 2 2 2 2 3 4 3 3 9 19 27 30 30 28 23 17 15 12 8 8 9 11 13 11 11 12 11 9 7 6 19 35 38 38 40 42 43 46 49 52 60 56 48 44 37 36 38 41 45 53 55 55 62 59 51 50 51 55 55 56 57 60 65 72 78 82 85 88 90
4 4 4 4 4 3 3 3 3 3 3 3 3 3 3 2 2 2 2 2 2 2 2 3 4 5 6 9 16 24 29 30 25 19 18 17 12 7 7 8 9 12 13 10 11 10 8 10 10 22 36 36 36 37 39 41 42 43 47 54 47 41 43 38 34 35 38 42 46 47 48 51 48 47 47 49 56 57 54 54 58 65 73 78 82 85 86 89
4 4 4 4 3 3 3 3 3 3 3 3 3 3 2 3 2 2 2 2 3 2 2 3 5 10 12 12 17 23 29 29 22 16 17 17 13 8 6 9 9 9 13 12 12 10 11 22 24 28 38 36 36 38 38 39 40 41 41 43 39 38 43 38 33 34 36 39 43 40 39 42 42 44 45 48 55 55 52 53 57 63 71 75 79 82 83 86
4 4 4 4 4 3 3 3 3 3 3 3 2 3 2 3 2 2 2 2 3 2 3 4 6 13 17 16 18 24 29 26 19 17 17 14 13 9 6 9 10 9 12 12 12 10 18 35 34 33 38 36 37 38 38 37 38 42 38 35 34 36 39 36 34 33 32 36 42 38 35 38 39 41 42 45 48 46 48 53 55 60 67 72 75 77 80 84
4 5 4 4 4 4 4 3 3 3 3 3 2 3 2 2 2 2 3 3 4 3 3 4 7 14 20 20 20 24 29 24 18 19 17 13 12 9 8 9 9 10 11 12 12 10 22 37 33 31 36 35 36 35 35 35 35 41 38 32 30 32 35 34 33 33 30 32 36 35 33 36 38 39 40 42 42 41 47 52 54 59 66 71 75 77 78 81
5 5 5 5 5 4 4 4 4 4 3 3 3 2 2 2 2 2 5 8 8 6 4 4 7 14 22 24 23 26 28 21 18 19 16 12 12 10 8 9 10 10 10 11 11 9 20 32 30 28 31 33 33 32 32 34 34 37 36 32 28 29 32 32 32 32 32 31 33 36 34 34 35 35 37 38 39 43 48 52 54 59 66 71 75 78 79 81
6 6 6 5 5 5 4 4 4 3 3 3 3 2 3 2 3 5 9 13 15 15 12 10 9 12 23 26 26 31 24 17 18 19 16 12 13 11 8 8 9 9 9 11 10 10 19 28 28 25 26 28 30 29 29 34 37 33 32 31 28 29 30 32 33 30 31 32 33 40 39 34 32 32 35 35 37 45 49 52 54 58 64 68 72 76 78 80
6 6 6 5 5 5 4 4 4 3 3 3 3 2 2 4 7 10 12 17 23 24 22 20 16 15 25 29 32 32 18 16 20 17 15 12 11 12 10 9 8 9 8 11 11 10 18 26 26 24 23 23 27 29 28 33 35 29 28 28 26 29 30 32 34 30 29 31 32 39 42 35 30 33 37 35 38 46 50 52 54 56 61 63 67 72 75 76
7 6 6 6 5 5 5 5 4 4 4 3 3 2 4 8 13 15 16 21 25 29 30 29 26 22 24 29 34 27 11 15 22 18 19 17 12 10 10 10 9 9 9 11 11 9 15 23 24 23 22 20 23 28 27 29 31 27 26 26 23 25 29 31 32 31 30 31 30 32 35 33 31 35 36 35 41 48 50 53 54 54 57 59 62 66 70 72
7 6 7 6 6 6 5 5 4 4 4 4 4 5 9 13 18 18 17 23 27 32 35 36 38 30 28 33 28 15 11 18 18 17 24 26 23 16 11 11 9 10 9 10 11 8 12 19 22 22 22 21 23 27 28 27 28 28 26 26 24 21 28 31 30 31 31 31 29 28 35 38 36 36 33 35 45 49 50 53 54 54 56 58 59 60 64 67
7 7 7 6 6 6 5 5 4 4 4 4 6 11 16 17 20 17 18 26 28 35 41 46 48 37 38 38 15 3 7 10 7 11 24 29 31 26 17 13 10 11 10 9 9 6 9 17 21 21 22 22 24 27 26 23 24 26 25 26 25 22 26 30 28 30 30 30 28 29 42 45 38 35 32 37 47 50 51 53 54 55 56 57 58 58 59 64
7 7 7 6 6 5 5 5 4 4 4 5 10 18 20 18 20 16 20 29 31 40 46 49 49 39 47 35 2 1 6 3 4 11 23 27 29 29 22 15 12 12 11 10 9 6 8 16 20 20 20 22 23 24 24 23 22 23 22 23 25 27 30 28 26 30 30 30 25 28 44 45 39 38 33 37 47 50 53 53 53 55 55 56 57 58 57 60
8 7 7 6 6 5 5 4 4 4 4 9 18 25 23 20 20 15 23 35 34 34 39 49 48 47 65 45 4 7 14 11 8 10 22 26 26 28 23 17 14 13 14 13 11 8 8 14 18 19 19 21 22 23 23 23 21 20 22 26 25 28 32 28 26 30 30 29 25 28 40 41 38 39 33 35 45 49 52 53 53 54 54 55 56 57 56 57
8 8 7 7 6 5 5 4 4 4 5 14 26 29 24 22 21 16 27 41 31 20 34 59 63 65 77 50 15 15 19 19 17 14 20 23 24 24 22 20 16 15 18 16 13 9 9 13 18 19 20 22 23 23 23 25 25 22 24 28 26 26 29 27 26 28 27 27 25 28 37 39 36 36 33 33 41 48 51 52 53 54 55 55 55 57 56 56
8 8 7 7 6 5 5 4 4 4 5 18 29 27 23 23 19 18 34 43 25 16 36 60 69 77 68 34 17 20 20 23 25 22 21 21 23 22 22 23 18 17 20 20 17 11 10 16 21 23 23 25 22 21 26 30 31 28 26 27 26 25 27 27 25 23 24 25 26 27 32 35 33 32 33 34 39 45 49 51 52 53 54 55 55 56 56 55
9 9 7 7 6 5 5 4 4 4 6 20 31 25 22 23 17 25 44 40 22 23 44 65 74 69 45 24 23 23 23 25 26 26 24 21 21 20 22 23 18 18 20 22 21 16 15 18 23 26 27 27 23 22 28 30 28 29 28 27 25 24 25 26 23 20 21 23 25 27 30 32 32 31 32 34 38 43 46 49 50 51 53 54 54 55 56 55
10 9 8 7 6 5 4 3 4 4 8 23 32 23 21 23 19 33 44 31 21 23 33 54 64 44 20 17 16 11 15 17 18 24 24 22 20 19 22 22 18 19 21 25 24 21 21 22 25 30 30 29 25 22 24 23 22 25 26 25 24 23 23 24 22 19 20 23 25 27 29 30 31 32 32 34 37 40 44 46 47 49 52 53 53 54 55 55
11 9 9 7 6 5 3 3 5 5 15 29 30 21 22 24 23 29 31 22 22 22 17 24 31 25 18 15 6 3 7 6 10 20 23 23 21 18 20 20 18 19 22 25 25 22 22 26 30 31 30 27 24 21 19 19 20 21 22 23 23 22 22 20 20 18 19 24 25 25 27 27 29 30 30 32 34 36 40 42 44 46 51 54 53 53 54 54
12 10 9 8 6 5 4 4 5 8 23 33 27 24 26 26 28 27 24 23 22 21 20 17 17 19 19 16 11 11 12 9 9 17 22 22 20 19 19 17 18 21 22 21 22 21 21 28 29 26 26 24 21 20 18 18 19 20 21 22 23 23 21 17 17 17 17 24 26 24 27 27 26 27 29 32 34 34 37 39 40 44 49 53 54 53 53 53
12 10 9 7 5 5 4 5 6 12 28 34 27 27 27 26 28 25 23 27 22 15 17 17 17 21 19 17 18 17 19 18 14 14 20 20 19 20 17 16 19 21 21 20 21 23 25 28 25 22 24 22 20 19 18 19 19 20 21 22 24 22 20 18 16 15 15 21 26 25 26 27 25 24 27 31 33 33 34 37 38 41 47 51 54 54 53 53
14 11 9 7 6 6 5 6 10 14 25 31 27 25 24 23 24 23 25 29 22 12 13 18 18 20 21 20 20 20 22 23 19 15 17 18 18 19 16 16 19 19 20 21 23 27 28 25 20 20 22 23 23 19 18 19 19 20 21 22 23 20 20 21 18 15 15 17 23 26 26 27 25 25 28 30 30 31 33 35 36 40 45 48 52 53 53 54
15 11 9 7 6 7 7 9 12 14 18 21 21 21 22 22 22 23 26 28 26 16 14 21 22 20 22 21 21 22 21 22 20 15 15 17 17 18 17 15 17 19 21 21 22 24 25 21 17 19 22 24 25 22 20 21 21 20 20 21 22 19 19 20 18 15 14 14 18 25 30 30 27 28 31 31 29 30 33 34 35 38 42 45 49 52 53 53
16 13 9 7 10 10 9 11 11 12 15 15 17 20 21 22 23 25 26 30 35 25 18 23 24 20 20 20 20 21 21 21 19 12 11 15 16 17 16 15 15 19 21 22 22 23 22 19 17 19 21 23 25 25 22 21 23 22 19 19 19 18 18 19 18 16 17 18 17 23 35 37 30 28 32 32 32 32 33 34 35 37 40 43 48 51 52 53
17 14 9 8 15 14 9 12 13 14 16 16 18 21 21 23 23 23 27 40 44 29 20 23 22 20 18 16 18 21 23 20 15 10 7 10 15 16 15 14 14 17 21 22 21 22 20 18 19 20 21 23 25 27 23 21 24 24 20 17 17 17 18 20 19 18 22 22 17 20 32 38 32 28 30 32 34 35 35 35 35 36 38 41 46 49 51 53
20 15 9 11 18 17 14 16 16 17 18 19 20 22 23 23 24 23 32 51 51 28 19 21 19 18 17 15 15 21 25 17 9 6 5 7 12 14 15 14 15 18 20 23 26 24 19 19 22 21 21 23 25 27 23 21 24 24 18 15 16 17 17 19 19 20 22 19 19 20 24 33 34 28 27 31 35 36 37 38 36 36 37 39 43 47 50 52
25 17 11 13 19 20 19 20 19 18 20 22 23 24 25 24 24 26 38 52 40 21 20 21 17 17 17 16 15 18 20 15 10 8 5 7 9 12 16 13 15 19 20 27 34 27 20 23 25 23 23 24 24 24 22 21 23 22 17 15 17 16 17 19 19 21 19 18 25 24 21 31 37 28 24 30 37 38 38 38 37 36 36 38 42 46 49 50
28 20 13 17 22 21 22 22 20 19 22 25 24 25 25 24 24 31 52 58 33 17 21 20 16 18 17 16 14 15 16 15 15 11 7 8 9 11 15 13 13 18 19 25 31 27 22 23 23 23 24 23 21 21 20 21 22 19 16 16 16 15 17 18 18 21 19 21 29 24 19 29 37 32 27 32 38 39 37 36 35 35 35 37 40 44 48 49
29 21 15 22 26 23 24 23 19 21 25 26 26 26 24 26 32 44 59 56 31 18 20 19 19 20 18 18 17 16 17 16 16 16 11 8 9 11 13 13 12 14 17 20 25 24 20 20 20 21 22 20 19 20 20 20 19 17 16 17 17 18 18 18 21 22 21 26 28 21 17 22 33 35 29 28 33 34 34 34 33 33 34 36 38 42 46 49
29 21 18 26 28 27 28 24 19 22 27 27 27 28 26 28 41 56 52 34 24 23 21 21 21 20 20 20 19 18 17 17 17 21 20 14 13 14 14 15 14 15 18 19 22 22 20 21 21 20 18 17 17 18 19 18 16 17 17 17 21 23 20 21 23 23 27 33 29 22 16 14 28 40 31 22 24 27 30 32 31 32 34 36 37 40 44 46
29 20 20 29 30 29 32 26 21 23 27 28 29 29 31 36 46 56 46 27 27 29 23 23 23 21 22 20 20 20 18 19 19 21 26 22 19 18 17 18 17 18 22 20 20 24 23 22 20 18 17 17 17 17 18 18 17 18 18 21 26 28 26 27 28 26 29 32 25 19 15 13 27 38 29 20 21 22 24 27 28 29 32 35 37 39 42 45
29 20 23 31 31 31 31 25 22 24 26 30 32 28 34 50 55 46 37 30 31 27 21 23 22 20 21 20 21 21 20 22 21 21 24 24 23 20 17 16 15 18 22 20 20 24 26 23 19 18 18 17 17 17 19 21 19 19 19 23 29 30 31 34 33 26 27 30 23 13 14 18 24 25 20 18 19 19 19 21 25 27 29 34 36 39 42 45
30 23 24 29 33 33 28 24 22 22 26 28 32 34 42 59 56 36 29 30 26 22 21 22 22 20 20 21 23 23 25 26 22 22 25 25 27 27 22 17 13 13 17 17 18 21 28 28 22 19 17 16 16 15 16 18 18 18 17 19 25 28 32 35 31 24 24 30 24 13 16 22 21 20 19 16 15 16 16 17 21 25 28 31 34 38 41 44
30 29 27 28 31 29 23 23 21 21 26 26 34 48 53 55 48 33 29 27 22 22 22 21 22 22 22 24 25 24 27 30 25 26 28 26 28 33 33 26 18 17 21 23 19 15 21 24 18 16 15 13 14 13 11 15 17 16 14 16 21 25 28 29 28 24 22 24 21 17 21 23 20 21 18 13 14 15 15 20 24 25 27 30 34 37 40 44
26 31 30 27 29 28 24 24 21 22 25 26 41 57 52 45 40 31 25 24 23 23 24 24 24 25 27 28 28 27 27 29 29 31 31 29 28 32 37 35 30 31 36 39 35 22 18 18 12 13 15 11 13 13 9 13 18 17 16 17 17 16 16 21 26 24 20 22 23 20 20 17 13 14 11 8 13 15 15 25 31 28 29 32 34 37 39 43
22 30 29 27 32 33 31 29 27 25 23 28 49 57 45 35 31 25 22 22 21 21 25 30 28 29 32 32 31 30 30 32 33 34 35 31 30 34 40 40 35 34 36 42 44 32 23 23 15 11 15 12 11 12 9 11 15 16 17 15 13 11 12 21 29 26 21 24 28 21 15 14 15 17 15 9 9 11 13 24 33 32 32 35 35 37 39 42
19 29 30 32 38 35 30 31 30 28 26 34 52 53 38 28 21 18 19 19 19 21 26 31 30 29 32 35 34 30 36 45 42 38 38 34 30 34 43 44 37 33 32 34 41 36 30 32 22 12 14 13 9 12 13 11 10 13 15 12 13 17 16 21 29 27 22 22 26 23 17 18 20 18 15 9 7 9 10 20 33 35 35 37 37 37 39 42
16 28 34 35 37 31 27 29 26 25 29 40 52 46 29 20 18 17 17 18 20 22 25 29 30 31 31 32 34 32 40 50 46 41 41 37 34 34 40 43 38 34 31 32 39 38 33 37 29 15 12 12 12 13 15 14 11 11 12 11 14 17 17 19 22 24 27 26 24 21 21 24 22 15 11 8 7 8 7 17 34 36 35 37 36 38 41 43
20 40 44 32 28 27 27 26 22 26 36 44 46 35 22 20 20 18 17 20 21 22 27 30 32 36 33 29 31 33 38 44 46 47 42 37 39 39 39 41 39 35 32 30 34 36 38 45 43 29 18 15 15 15 14 14 13 12 13 14 14 13 15 16 15 20 30 36 31 21 21 27 20 10 9 8 8 7 5 13 30 35 34 35 36 37 40 43
30 53 45 23 22 28 28 27 27 32 38 39 33 24 21 25 23 19 19 20 21 22 27 31 32 35 32 31 33 33 34 37 45 52 48 43 46 46 42 40 38 36 35 34 34 38 46 56 59 49 34 23 16 12 12 12 11 12 13 14 14 13 14 17 18 17 18 31 42 33 27 29 22 12 9 8 7 7 5 8 23 35 34 33 35 36 38 42
46 59 37 23 33 36 33 35 37 40 38 37 32 24 22 24 23 23 22 21 22 24 27 29 30 30 30 33 33 31 36 44 51 58 56 50 49 49 45 41 38 37 37 37 34 35 44 56 64 58 40 26 17 12 12 11 10 11 12 12 12 13 13 15 22 21 11 19 33 31 25 26 26 19 12 7 7 7 6 5 17 32 33 31 34 35 37 40
54 58 34 31 42 42 46 53 55 54 49 45 42 32 25 23 25 29 27 24 25 28 31 31 30 33 35 35 32 30 40 52 55 56 58 55 50 48 46 42 40 38 36 38 36 36 44 54 62 61 44 26 19 14 12 11 10 11 12 12 10 11 12 12 22 27 18 15 20 21 20 20 25 28 18 11 10 7 6 6 14 29 32 29 31 33 36 38
57 62 45 39 42 46 58 66 69 69 60 54 52 43 34 26 26 32 31 27 28 31 35 35 34 38 38 34 31 29 39 58 63 58 59 62 55 49 47 45 44 41 37 38 38 41 50 54 60 70 57 30 21 22 18 14 12 11 13 12 9 11 11 10 19 24 17 16 19 22 22 20 27 32 23 18 15 8 7 7 12 25 29 27 29 31 33 36
72 77 59 44 42 51 63 65 69 74 68 65 64 53 43 35 28 31 32 30 28 30 36 36 35 38 36 33 34 31 36 53 65 64 61 62 57 51 49 48 47 43 38 37 37 41 49 51 56 73 70 46 39 43 36 25 17 11 12 12 9 11 9 11 20 23 20 23 23 19 19 22 28 26 17 18 15 7 10 11 13 22 26 26 28 30 32 35
86 84 67 56 51 54 62 63 70 77 74 76 75 61 52 47 38 31 32 33 30 29 33 34 34 38 38 37 42 42 37 41 53 60 60 63 63 56 53 53 49 43 40 40 39 40 46 48 50 61 64 54 51 51 43 35 28 17 12 12 12 10 8 12 21 25 30 34 27 21 22 22 23 22 19 22 17 11 15 18 17 22 24 25 28 29 31 33
85 77 69 72 69 64 68 69 72 79 77 78 79 68 58 53 43 35 34 34 32 31 33 34 35 42 46 46 49 49 43 43 50 56 58 65 66 59 56 55 50 47 44 41 40 42 50 53 47 46 47 41 38 37 32 32 32 23 13 12 12 11 10 11 15 24 36 34 24 28 33 23 19 22 24 27 27 27 28 26 22 22 23 24 27 29 31 32
78 71 69 74 77 80 84 80 76 77 74 74 78 71 61 56 53 49 44 37 34 34 38 42 41 43 48 50 52 53 51 54 60 60 63 68 68 68 68 60 51 50 47 42 40 42 52 55 44 41 42 32 28 30 29 30 31 23 15 12 12 12 12 11 12 21 32 28 20 31 38 27 19 22 24 25 30 33 34 30 23 21 24 24 25 29 31 32
79 79 79 79 81 85 86 83 80 78 75 78 82 73 64 63 63 58 50 45 46 42 41 50 49 44 48 50 52 57 60 65 69 65 66 70 68 74 83 76 65 59 52 48 43 40 52 59 48 44 44 34 31 35 32 30 30 23 15 12 11 12 12 11 13 21 27 24 22 31 37 30 22 24 24 23 24 27 30 30 26 23 25 24 23 27 30 31
88 92 92 93 93 86 82 82 84 87 83 80 82 73 64 66 67 61 54 52 58 52 45 50 51 46 49 51 52 57 56 59 64 57 56 65 67 73 85 84 75 69 61 53 46 42 53 62 53 46 45 38 40 45 40 31 28 25 21 15 11 12 13 11 11 16 22 26 31 36 36 28 24 26 27 24 22 24 27 30 30 27 25 25 24 25 27 29
92 95 95 100 97 85 83 85 85 94 94 84 80 76 71 70 66 64 63 56 56 59 54 53 53 49 50 53 56 57 49 47 50 44 41 47 49 56 71 70 64 69 70 60 51 47 54 61 55 48 48 43 42 47 42 30 27 31 35 32 23 16 13 13 17 24 28 30 34 36 32 26 23 24 27 28 27 28 30 31 32 28 25 25 24 23 25 27
94 94 94 100 99 89 89 90 89 96 94 80 74 73 71 68 62 67 78 67 55 59 59 54 54 56 58 60 58 54 47 43 44 39 35 35 32 35 48 50 48 58 67 64 56 48 52 62 59 53 54 46 37 41 43 39 43 46 46 46 45 42 44 48 56 63 57 43 33 31 30 29 27 30 40 47 46 46 48 45 43 38 31 28 26 24 25 27
Wind_Speed
23 23 23 23 23 23 23 23 23 23 23 23 24 24 24 24 23 22 21 20 17 15 14 14 16 16 15 14 15 16 18 20 18 22 24 15 12 16 16 13 14 20 23 20 20 18 17 20 21 21 19 17 20 22 21 20 18 11 5 4 5 4 4 4 2 5 6 3 5 9 11 11 6 19 22 17 20 23 21 19 21 14 19 29 29 40 42 40
23 24 24 24 24 24 24 24 24 24 23 24 24 24 25 25 24 23 22 20 18 16 14 13 14 16 16 14 15 16 18 19 20 27 23 11 12 14 18 19 17 21 26 24 24 21 20 23 24 23 23 18 16 20 19 15 16 11 4 4 6 5 6 5 4 10 9 5 9 13 15 14 14 22 22 16 16 19 16 16 21 22 25 28 35 42 40 42
24 24 24 24 24 24 25 25 24 24 24 24 24 24 25 25 25 24 23 21 19 17 15 13 13 14 16 15 15 16 16 17 23 26 13 8 16 15 18 22 21 23 25 25 24 22 20 21 23 25 23 17 17 18 15 12 12 12 8 4 7 8 7 8 7 11 15 13 13 14 18 19 20 22 21 15 16 16 13 17 22 25 30 35 39 41 42 43
24 24 24 24 24 24 24 24 24 24 24 24 24 24 25 25 25 24 22 21 19 17 16 13 13 13 14 15 15 14 14 16 18 14 3 4 12 15 21 23 25 26 24 23 24 22 19 17 20 24 19 13 17 17 13 14 11 9 10 7 9 7 5 13 12 10 17 20 17 17 18 18 19 22 20 17 15 9 14 25 29 32 38 41 41 42 44 41
24 24 24 24 24 24 24 24 24 24 24 24 24 25 25 25 25 24 22 21 19 18 17 14 13 12 12 13 14 12 8 8 4 4 3 1 5 14 24 25 27 29 25 23 24 24 20 17 19 21 16 9 13 12 14 22 15 7 10 13 13 7 3 15 14 10 12 16 16 14 12 14 17 17 20 22 13 10 20 29 33 39 43 45 45 45 43 41
24 24 24 24 24 24 24 24 24 23 24 24 24 24 24 24 24 23 22 21 19 19 17 14 13 12 12 11 11 10 5 4 4 7 3 2 2 11 24 25 26 28 25 23 25 27 24 21 20 19 14 8 10 10 14 23 19 8 9 14 18 16 9 13 13 15 11 11 12 12 12 16 15 9 19 26 14 15 27 32 35 40 43 46 47 46 45 43
24 24 24 24 24 24 24 24 24 23 24 23 23 24 24 24 23 23 22 21 19 18 17 15 13 12 11 9 10 9 11 14 8 7 5 5 5 8 23 27 26 28 27 25 26 29 29 26 21 19 13 7 10 13 15 19 19 12 9 11 16 19 17 15 16 19 16 11 9 12 11 14 14 9 18 24 15 20 31 34 38 40 42 44 44 46 46 45
24 25 24 24 24 24 24 24 24 24 24 23 23 23 23 23 23 23 22 20 19 17 17 15 13 11 10 8 6 8 15 15 5 9 10 7 9 9 23 29 28 29 28 27 28 32 32 28 24 20 11 8 11 13 16 15 14 13 12 15 14 17 22 21 19 20 20 16 11 14 9 13 17 13 15 18 16 25 33 36 38 40 42 42 42 44 44 44
25 25 25 25 25 25 25 25 24 24 24 23 23 22 22 22 22 22 21 20 18 17 16 14 14 11 9 7 4 7 11 4 3 12 14 8 7 8 20 28 30 31 29 29 29 30 32 29 29 24 11 12 15 13 16 12 8 12 16 18 15 14 22 23 19 20 22 19 17 15 8 15 19 15 11 14 21 30 35 38 40 41 42 41 41 43 44 44
26 26 26 27 26 26 26 26 25 25 24 23 23 22 22 22 22 22 21 20 17 17 16 15 14 11 9 6 5 3 5 3 4 12 15 10 7 8 15 21 26 30 30 31 30 31 34 31 31 28 16 13 15 14 16 12 9 14 18 20 19 16 19 22 20 21 20 18 19 15 8 14 19 15 6 10 26 35 37 39 41 43 42 42 40 42 44 43
27 26 27 28 27 28 28 28 27 26 25 24 23 23 22 22 21 21 21 20 18 18 18 18 16 12 10 8 11 8 6 3 3 8 11 9 10 11 14 17 21 27 29 32 33 33 35 32 29 25 15 12 13 14 17 19 17 18 18 15 17 17 17 19 16 19 17 12 18 16 12 15 15 10 7 15 31 38 39 39 41 43 41 41 40 40 41 42
27 27 28 28 29 29 29 29 29 28 26 24 24 23 22 21 19 19 21 21 20 19 19 20 16 13 10 12 19 9 3 7 3 2 6 9 11 12 12 15 19 22 26 30 32 32 33 32 28 21 13 10 9 7 11 21 22 21 18 10 11 12 11 16 15 18 15 8 17 16 9 12 11 7 12 22 34 39 39 38 39 40 39 40 40 39 38 40
29 29 29 30 30 30 30 30 29 29 27 25 24 22 20 18 16 19 22 22 21 19 19 19 16 14 9 15 23 13 5 11 13 9 11 14 16 15 15 16 16 19 24 26 26 29 32 32 27 24 21 12 6 8 9 14 17 17 13 7 7 7 6 14 16 17 15 10 20 17 4 8 10 9 15 24 34 37 34 36 38 37 38 38 39 40 38 39
31 32 31 31 31 31 31 30 29 29 26 25 24 21 18 15 15 21 23 20 16 16 18 17 15 12 10 18 24 17 14 17 17 15 16 17 19 18 19 20 18 19 23 25 23 24 30 33 27 23 24 18 14 14 11 10 10 7 6 5 5 5 5 11 16 14 12 14 23 19 4 6 9 11 21 27 33 36 32 33 36 36 37 36 38 41 39 39
33 33 33 32 31 31 31 31 30 28 25 24 22 20 18 15 16 22 20 13 14 20 20 14 12 9 10 22 24 13 11 13 16 20 21 20 20 20 21 23 21 18 19 23 24 24 28 30 25 18 19 21 19 14 7 5 4 2 4 4 4 5 4 8 15 16 12 13 20 17 4 5 9 14 29 33 33 37 32 33 35 35 37 37 37 41 41 39
33 34 34 33 32 31 32 32 30 27 24 22 20 20 17 14 18 20 15 9 16 25 21 11 7 7 8 14 13 5 7 8 9 12 21 24 22 21 21 21 22 19 15 17 21 25 28 24 20 20 18 16 12 7 4 4 4 3 4 4 4 5 4 5 9 15 17 11 14 14 5 4 8 17 32 35 34 36 31 32 35 35 37 38 37 39 41 40
34 34 34 33 32 31 32 32 30 26 23 21 20 20 17 16 19 17 9 8 19 28 21 9 6 9 12 10 7 6 4 3 5 5 12 23 26 23 19 22 24 21 19 15 17 24 27 20 15 15 15 10 6 5 5 6 6 4 3 3 5 5 5 5 4 9 16 12 11 13 8 5 8 17 28 34 36 35 31 32 35 35 36 39 38 37 40 41
35 35 34 34 33 32 32 31 29 25 23 21 20 21 17 18 22 11 4 12 24 26 14 6 2 5 10 9 11 11 7 6 8 8 7 15 26 25 20 25 26 23 22 17 17 23 22 16 11 6 7 8 7 7 8 8 6 4 4 3 5 5 5 6 6 6 9 10 11 11 10 8 9 18 26 33 38 35 32 35 36 36 37 38 38 37 40 42
35 35 35 35 34 33 32 31 28 23 22 20 19 21 19 26 25 6 3 19 24 16 7 9 8 6 13 19 25 22 19 22 21 16 10 10 21 27 21 23 28 27 20 12 13 20 16 9 8 7 8 11 10 10 9 6 5 5 6 4 5 6 5 6 7 8 8 8 10 11 12 10 11 20 25 32 39 35 33 35 34 35 36 38 38 38 40 42
35 35 35 35 34 33 31 30 26 21 21 20 22 25 24 31 22 3 14 29 25 19 21 27 25 24 29 35 38 30 26 27 23 18 14 10 17 26 24 22 24 23 16 8 10 17 15 7 8 12 10 12 12 11 8 5 6 7 5 6 7 7 7 7 9 11 9 7 9 13 14 12 13 18 23 33 37 30 29 30 30 33 35 38 39 40 42 43
35 35 34 35 33 32 30 28 24 20 19 18 23 24 22 25 16 11 29 31 26 26 29 37 35 35 38 40 41 33 24 23 20 20 17 13 17 21 22 20 15 12 13 11 9 12 13 8 13 15 10 9 11 11 9 7 8 8 7 7 7 7 8 10 13 12 8 7 9 13 13 12 13 14 20 29 28 23 27 29 30 34 36 39 41 42 44 44
35 34 34 34 33 32 28 25 22 18 16 15 21 23 20 24 19 20 29 22 30 38 32 37 36 36 40 40 41 33 22 19 22 25 19 14 18 19 18 17 11 7 11 12 8 7 9 13 17 14 8 8 9 11 12 11 10 8 7 7 6 6 6 9 14 13 8 6 7 12 13 12 14 13 18 26 23 24 35 37 36 39 37 38 42 43 44 41
34 34 33 34 32 31 27 22 20 17 13 14 22 24 23 26 22 24 26 15 29 41 28 22 22 26 31 30 29 25 20 18 20 25 23 15 18 24 19 12 10 9 11 13 11 9 9 13 15 11 8 10 10 12 14 12 10 8 7 7 7 7 6 7 10 10 8 7 7 12 13 11 12 10 15 29 32 31 39 45 44 44 43 43 45 46 45 43
33 33 33 33 31 29 25 20 19 18 15 15 22 23 24 26 22 27 27 10 14 25 18 11 7 11 15 16 16 14 19 20 20 24 26 18 17 24 19 12 12 10 12 16 16 14 10 6 11 13 12 13 12 12 13 11 9 11 12 10 8 10 11 10 8 5 5 7 7 10 9 7 10 9 10 23 30 29 36 41 38 40 45 45 45 46 47 48
33 32 32 31 28 27 24 19 21 23 19 19 22 23 24 24 23 29 24 6 6 11 8 9 8 13 16 20 21 11 17 19 25 28 26 22 18 18 15 14 13 10 13 18 16 15 13 8 15 17 15 14 13 12 13 12 8 10 15 15 13 12 13 13 9 5 4 6 6 9 8 5 8 12 12 15 18 20 27 29 28 34 39 39 40 43 46 48
31 31 31 28 24 25 23 21 25 25 22 22 23 24 25 24 26 30 16 1 4 6 5 11 8 15 22 29 32 13 9 11 21 31 30 25 20 16 12 11 11 10 12 13 10 9 10 11 12 14 16 16 15 12 13 13 8 9 13 15 15 14 15 13 8 5 4 5 6 10 10 5 6 11 14 16 16 17 21 21 25 34 36 37 40 43 45 46
30 30 30 24 20 22 23 24 26 26 24 23 23 26 27 26 27 26 10 2 4 6 7 13 10 15 26 37 33 6 5 12 14 24 33 32 25 18 13 9 8 9 9 8 8 7 10 14 13 13 16 15 14 12 13 15 10 7 9 12 15 16 18 15 8 5 5 4 5 7 10 7 5 10 13 19 20 17 18 19 21 28 35 38 41 43 46 47
29 28 27 21 15 17 21 24 27 27 23 22 25 28 27 28 26 16 3 2 5 8 7 12 16 19 31 44 33 8 10 20 11 13 28 34 28 18 12 10 10 8 9 10 9 7 10 15 15 14 14 11 13 14 13 16 12 6 8 12 14 16 17 13 7 7 6 4 6 6 7 6 5 9 11 17 21 18 18 20 19 23 32 38 41 43 47 49
28 26 24 19 12 13 17 21 26 25 21 22 27 29 28 28 20 6 4 1 4 8 9 14 20 24 33 40 29 18 20 18 12 16 20 30 31 20 10 10 11 7 10 13 10 5 7 15 17 14 12 10 12 13 12 14 12 7 8 10 12 14 15 11 8 7 6 5 7 6 6 5 4 7 9 11 17 17 17 19 19 25 35 39 41 44 47 49
29 23 21 16 10 11 14 19 25 20 19 24 26 29 30 22 9 2 3 1 1 7 13 14 17 23 29 25 17 19 20 14 20 29 16 19 26 24 16 14 12 7 8 12 12 9 7 14 19 15 13 10 10 13 13 14 12 8 8 9 9 10 9 7 6 5 5 6 8 9 8 7 5 5 8 10 14 18 17 16 18 23 33 40 43 45 47 48
30 21 16 13 10 11 13 19 25 18 18 24 26 30 28 13 3 4 2 4 2 7 12 12 14 20 22 15 12 17 17 13 20 26 16 8 12 16 12 11 10 7 6 7 9 11 11 11 12 14 19 15 9 11 13 14 14 9 7 8 6 5 4 4 4 4 6 6 7 9 9 7 5 5 8 11 16 22 20 18 19 20 27 39 43 45 48 49
29 19 12 10 10 11 12 18 24 21 19 24 29 29 15 4 3 2 2 7 5 5 9 12 16 17 17 12 9 14 15 11 15 16 13 10 5 9 9 7 6 7 8 6 4 7 11 13 7 10 22 21 11 8 10 12 13 10 7 6 5 4 3 5 5 4 5 6 6 8 8 5 6 6 8 11 14 19 20 21 25 24 28 38 42 44 47 48
27 16 10 8 8 10 11 16 23 24 20 24 29 21 4 4 3 1 3 5 4 5 8 11 16 16 15 11 9 13 11 7 15 16 12 13 10 4 11 10 7 7 8 6 4 5 7 11 12 11 14 19 16 8 6 9 10 11 9 7 6 6 5 6 5 3 4 6 6 7 6 4 5 6 7 10 10 14 20 26 34 36 36 41 44 45 45 46
26 13 8 6 6 9 11 16 23 22 20 24 22 10 4 3 1 3 4 3 4 7 8 10 14 13 11 10 11 14 9 6 16 17 11 13 12 6 5 9 9 7 5 4 5 7 7 8 13 14 7 12 17 12 8 9 9 11 10 7 6 6 6 5 4 4 4 4 5 4 5 5 5 5 7 11 11 15 24 28 35 41 43 44 44 43 44 45
25 10 6 6 6 10 13 17 21 18 17 21 14 4 3 1 2 2 3 3 5 7 9 11 12 10 10 8 9 13 10 8 15 14 10 11 9 8 8 5 2 4 3 3 3 5 9 8 7 12 9 9 15 14 10 10 9 10 9 6 7 6 5 3 4 4 4 2 4 4 4 5 5 5 5 6 7 14 20 20 27 35 40 41 40 40 43 45
26 10 5 6 8 14 18 18 19 19 17 13 7 1 0 2 2 2 2 4 5 6 9 9 7 7 8 7 7 13 12 9 12 11 8 9 8 7 9 8 10 13 8 3 4 2 7 8 4 9 13 13 15 13 13 12 7 6 9 8 7 6 6 4 4 1 5 4 5 3 3 3 2 5 6 5 5 8 11 13 19 28 34 36 37 41 44 45
30 13 7 10 14 21 24 19 19 22 17 5 3 3 2 2 2 2 2 5 4 5 7 5 5 7 9 8 7 14 14 9 10 10 8 9 7 9 10 9 13 16 14 9 4 3 3 6 6 9 14 17 19 15 13 14 9 6 9 9 6 5 4 4 2 2 3 4 4 5 6 4 3 4 7 7 7 8 9 11 15 22 28 32 36 41 45 46
31 13 7 13 22 25 23 18 18 20 11 3 0 5 1 1 1 2 7 7 4 4 4 2 4 5 8 9 8 13 13 8 9 9 8 7 4 10 11 7 11 17 21 17 4 2 6 5 7 10 13 15 18 15 10 14 15 10 8 8 7 5 6 5 4 4 4 4 3 5 7 5 5 5 6 8 11 12 10 11 15 18 22 28 36 42 46 47
31 14 5 17 29 22 18 21 18 12 3 2 2 4 1 1 3 8 13 9 4 3 4 3 5 5 7 9 9 10 10 7 9 8 5 6 6 9 12 9 13 20 25 20 6 4 7 4 4 8 10 9 11 10 8 12 14 9 7 9 8 6 5 5 4 4 4 4 4 3 4 5 5 6 9 12 14 14 12 11 15 18 22 30 36 41 44 46
30 15 6 23 33 24 23 25 15 2 2 1 3 2 2 2 6 11 14 13 5 3 4 4 5 5 6 9 9 8 7 5 7 7 5 7 9 8 10 13 15 21 24 16 6 6 6 2 3 7 7 5 7 9 12 13 10 8 8 9 9 4 3 4 3 3 5 3 4 4 4 6 7 8 12 15 14 15 14 12 15 19 28 37 40 42 44 45
27 11 9 27 35 29 26 19 9 4 1 1 1 1 3 3 7 10 14 16 8 5 6 5 5 6 6 7 8 7 7 5 5 5 5 6 7 5 9 19 19 19 19 12 7 8 6 3 5 7 6 6 7 8 14 15 10 8 7 8 11 6 5 6 5 4 4 4 4 5 4 7 8 7 11 15 14 14 16 13 13 20 33 40 42 45 46 46
20 9 12 26 33 30 19 7 7 8 2 4 8 7 5 4 6 9 13 15 9 6 8 6 4 5 5 5 7 7 6 4 4 4 4 6 8 7 13 25 23 17 15 9 8 10 8 3 5 8 6 9 13 11 11 15 12 9 7 7 10 8 6 8 7 6 5 4 3 3 3 6 7 7 10 14 14 15 19 15 12 22 36 41 43 46 47 48
16 16 16 23 29 27 15 4 7 8 3 10 16 13 9 6 6 9 11 10 7 4 5 5 3 4 4 4 7 8 5 3 2 3 5 8 8 10 17 24 22 16 11 6 6 11 9 3 2 7 7 9 14 12 8 12 14 10 7 7 9 10 9 7 6 6 5 5 4 2 4 7 7 5 8 12 14 15 19 19 17 23 35 41 42 44 46 49
19 20 16 21 26 23 15 5 6 6 6 12 14 13 13 9 6 7 8 7 5 3 2 3 3 4 4 5 7 8 6 3 2 3 6 7 7 12 18 21 19 14 8 6 8 9 8 4 3 6 5 4 7 8 6 8 12 10 8 9 12 14 12 6 4 5 4 7 7 4 4 8 7 5 4 8 13 14 15 19 24 28 33 39 42 45 47 48
17 11 10 22 26 19 14 8 6 5 8 11 10 10 12 10 5 9 9 7 7 6 2 2 2 4 5 5 7 9 6 2 1 4 5 6 8 11 16 20 21 15 11 15 15 9 5 4 3 3 3 3 5 4 3 3 6 8 11 14 14 16 15 8 4 5 5 7 7 6 6 9 8 8 9 6 11 14 10 13 23 32 38 40 41 44 46 46
11 4 5 17 19 16 16 17 11 6 6 8 8 8 10 10 7 10 9 5 8 10 7 3 2 3 4 5 7 8 8 4 3 4 6 6 7 8 15 23 23 18 15 16 13 7 3 5 6 8 7 7 7 8 9 8 7 9 15 17 14 14 15 10 6 4 6 5 5 7 9 8 9 8 9 7 4 10 9 9 15 27 37 40 40 43 45 44
6 4 4 8 8 10 15 18 14 10 8 8 6 5 9 10 8 8 6 5 9 10 5 2 2 2 3 6 6 6 8 7 6 6 7 7 7 9 16 20 17 15 14 11 11 7 3 5 8 11 12 13 13 16 17 13 11 13 16 18 15 13 14 12 9 7 6 6 5 9 8 7 9 9 8 7 0 7 9 9 13 24 35 39 42 44 44 44
4 6 7 6 4 4 8 12 15 13 11 10 4 4 8 9 8 8 6 9 12 10 3 1 2 4 4 5 4 5 7 6 5 6 5 5 7 9 12 13 9 8 13 12 10 6 2 5 8 11 18 20 17 16 16 12 10 11 13 19 17 15 15 14 11 8 8 8 8 9 8 9 9 8 7 6 2 2 6 12 20 29 35 38 42 43 42 42
5 6 7 6 5 7 9 13 15 12 10 9 4 3 7 8 9 9 7 8 9 7 6 4 4 7 6 3 3 4 4 4 5 6 4 4 7 7 7 8 5 8 14 11 8 5 2 5 8 14 19 20 15 11 10 8 8 9 8 19 19 16 16 13 10 9 8 8 9 7 7 7 6 6 5 2 2 2 4 11 18 27 33 36 38 40 41 42
5 5 8 8 7 10 12 12 10 8 7 7 4 4 7 8 9 10 9 9 7 6 8 9 10 9 5 3 4 4 4 4 7 9 6 5 5 3 1 2 6 10 12 9 6 5 2 4 11 14 12 11 9 9 9 9 7 7 2 10 14 15 17 13 9 8 6 4 4 6 5 1 4 4 0 6 9 8 7 9 12 21 31 35 35 36 39 41
7 9 11 10 6 6 9 8 6 5 4 3 3 4 7 8 9 9 8 10 9 8 10 12 13 10 4 3 4 5 8 9 12 16 15 11 9 4 3 3 6 9 9 7 7 5 3 4 9 10 7 7 9 12 14 13 5 10 13 9 1 8 11 7 3 2 0 2 6 8 6 1 2 1 6 10 11 11 8 7 9 16 26 33 36 36 38 40
10 12 13 10 4 3 4 5 4 3 3 3 6 7 7 11 12 8 5 7 10 13 14 14 12 8 3 4 5 8 16 19 20 24 24 21 18 12 11 12 12 9 6 6 8 6 3 4 6 7 6 7 10 14 15 12 5 9 11 14 9 7 12 10 10 13 10 1 5 5 5 4 3 5 12 12 12 13 10 10 12 14 18 23 28 31 33 35
Wind_Direction
7 5 3 0 359 358 357 355 353 352 350 348 346 345 343 342 342 342 341 339 335 327 322 318 313 308 299 293 286 280 280 278 279 269 260 275 276 239 223 213 196 194 195 191 187 185 184 190 192 186 182 189 206 213 210 219 228 227 212 219 245 242 226 211 176 154 156 171 189 216 184 142 183 212 202 170 147 148 154 160 158 150 147 151 155 155 155 157
4 3 1 359 357 356 356 354 353 352 350 349 346 345 343 342 342 341 339 337 335 328 323 317 313 310 302 296 289 283 282 283 282 271 263 282 283 242 217 210 192 191 197 197 194 192 188 189 189 183 187 195 207 214 215 218 219 220 197 210 234 224 228 221 167 147 152 172 172 201 195 167 202 202 173 152 153 152 147 147 142 131 134 144 152 155 157 158
3 1 359 357 356 354 354 352 352 350 349 348 345 344 343 343 342 341 339 336 334 328 323 318 313 310 303 298 292 288 288 292 287 278 275 260 246 221 204 205 194 193 199 204 202 197 194 190 187 183 188 202 210 212 217 217 215 221 217 220 236 228 241 250 215 156 154 164 167 189 194 192 206 186 161 156 159 159 153 146 143 137 140 146 153 158 159 159
2 0 358 356 354 353 352 351 351 349 348 346 344 344 342 342 341 340 341 337 333 327 323 320 312 310 304 298 293 293 299 304 291 275 266 232 234 205 191 194 196 197 195 201 205 201 197 191 188 186 188 208 217 216 222 221 213 213 215 221 236 222 227 250 236 163 157 163 172 188 191 200 193 169 164 163 158 170 165 158 155 150 149 152 157 161 161 162
2 360 358 355 353 352 350 350 349 348 347 345 344 342 340 340 338 338 340 338 333 325 322 318 312 310 303 297 292 292 307 324 283 183 135 198 240 201 186 187 195 197 191 191 199 198 194 191 190 190 195 216 215 219 231 225 220 221 230 231 239 223 209 250 224 160 171 163 165 187 189 187 173 169 175 167 170 187 170 164 160 156 157 159 161 162 163 164
2 360 357 354 352 351 349 349 349 347 346 344 343 340 338 337 335 336 336 335 331 324 322 317 313 309 304 297 288 283 264 273 206 162 158 163 191 193 183 185 189 188 187 185 191 193 191 191 193 194 201 221 209 217 231 224 221 236 251 238 240 230 226 252 199 158 186 171 156 179 185 177 169 191 184 176 189 180 169 167 163 162 163 162 163 163 165 168
1 359 357 354 352 350 349 349 348 347 345 344 342 339 336 334 333 332 332 332 328 323 320 315 313 307 305 294 282 274 244 260 256 191 198 149 111 172 180 181 177 176 182 186 187 187 190 193 197 201 200 214 214 222 232 228 224 230 254 246 242 230 223 235 199 171 180 183 172 167 177 185 184 206 184 184 190 166 166 167 163 164 163 163 164 166 169 171
1 358 356 354 351 350 349 349 347 346 345 343 341 337 335 332 329 328 329 330 326 323 320 316 313 302 303 294 274 270 256 272 286 190 198 141 109 156 179 181 181 181 186 192 190 185 190 196 200 203 202 215 214 221 229 231 231 230 242 247 249 235 222 222 207 185 176 182 177 153 174 207 201 198 177 182 174 157 162 162 161 162 162 165 166 169 172 173
1 358 356 354 352 351 350 349 348 345 344 342 341 337 335 331 326 325 326 328 326 324 322 316 311 300 297 284 246 274 268 291 83 185 190 159 134 160 178 184 189 193 195 196 195 187 189 197 202 202 205 218 216 225 228 225 231 228 235 243 246 235 220 212 203 192 182 186 179 153 188 223 205 193 177 180 165 156 159 158 160 161 163 167 169 172 174 175
1 360 358 356 355 353 352 352 349 346 345 343 341 338 335 329 326 325 324 329 327 322 323 317 312 302 289 261 185 244 262 95 98 183 183 184 178 172 187 191 191 193 196 195 194 191 192 197 199 201 213 227 220 225 226 226 233 231 238 244 243 234 216 204 201 199 192 196 191 163 181 209 188 178 195 186 164 157 156 156 161 162 165 169 170 175 176 178
1 1 359 357 356 355 353 352 350 349 347 345 343 339 335 330 329 327 326 330 326 321 318 312 311 296 277 236 199 231 248 167 116 166 183 209 200 185 192 199 197 193 193 194 195 195 195 196 195 199 217 232 227 232 233 234 241 244 247 252 249 239 220 207 204 202 193 200 203 175 162 184 176 176 203 174 161 159 156 157 164 165 167 171 171 173 177 181
1 1 0 358 356 355 353 352 350 349 349 347 345 341 336 334 332 329 330 330 324 322 315 312 311 288 270 239 227 231 151 174 206 197 199 214 214 214 207 204 208 202 194 193 195 198 196 194 196 204 219 226 225 240 243 235 238 247 249 259 262 251 226 211 207 202 193 197 201 178 150 179 179 192 191 167 160 161 159 158 164 167 169 173 174 175 177 181
359 359 0 358 356 355 352 351 350 348 349 349 346 345 341 339 337 333 333 328 324 326 318 315 309 288 261 241 248 260 259 248 265 255 206 202 211 219 220 215 218 217 208 202 198 198 196 194 200 215 229 240 239 232 249 249 242 244 243 245 254 262 240 211 208 200 192 209 196 175 167 191 179 184 174 163 160 158 159 162 165 168 171 174 177 180 179 179
358 358 358 358 356 353 351 351 350 348 350 350 347 348 344 340 339 337 334 329 337 345 331 320 310 294 248 251 273 284 275 266 256 227 197 202 209 207 214 214 216 220 217 216 209 200 197 200 208 223 238 252 262 252 258 269 256 245 244 243 223 237 257 213 207 194 188 217 195 172 214 204 175 185 170 163 162 160 161 166 168 170 172 175 178 182 183 182
358 356 355 357 354 351 351 351 351 349 350 351 347 346 344 336 335 339 335 335 356 354 340 325 309 299 263 273 288 281 250 246 236 215 192 200 210 206 209 208 208 211 215 218 214 207 203 206 215 227 245 253 259 261 262 266 264 247 239 254 217 205 258 225 205 192 185 213 193 175 217 191 177 186 174 171 168 164 165 168 171 173 174 176 177 182 186 186
356 354 353 354 353 351 351 352 353 350 349 353 348 343 343 333 335 338 330 335 351 346 339 330 322 313 282 289 299 267 235 245 256 220 192 196 205 205 205 206 207 203 208 215 208 211 211 211 219 228 242 251 248 238 238 264 267 240 212 236 236 200 224 236 211 198 190 198 196 189 193 166 184 180 174 176 173 167 167 170 173 174 176 178 179 183 187 188
355 354 351 351 352 351 349 351 353 349 348 353 347 345 343 337 344 338 320 338 338 334 326 298 314 309 272 274 292 287 271 250 318 300 206 201 201 201 205 206 205 201 207 211 204 211 216 215 221 229 234 239 231 194 207 238 237 242 215 223 245 212 203 217 228 214 196 191 200 201 198 178 174 168 172 178 174 169 170 173 175 176 178 181 183 185 187 190
354 353 349 349 351 350 350 350 351 349 347 350 348 347 345 347 356 351 302 336 329 329 325 252 240 321 275 275 283 280 290 287 295 293 241 212 204 200 206 206 201 198 202 207 207 209 213 214 216 228 233 223 216 199 204 219 212 219 215 218 249 230 219 215 219 225 202 198 204 203 208 201 158 158 172 178 174 172 175 176 177 177 179 182 184 186 188 191
353 351 348 348 349 349 350 348 350 351 347 349 345 340 348 356 3 27 295 329 322 319 305 241 218 253 273 280 282 282 290 291 289 275 242 220 212 205 207 208 199 191 189 196 205 202 201 202 208 219 225 216 214 211 213 215 198 206 211 219 239 232 233 228 225 226 206 203 208 204 209 204 164 160 170 176 176 177 178 178 178 178 179 181 184 187 188 192
351 350 347 347 347 348 349 348 351 354 350 353 348 348 1 0 3 20 318 320 305 285 272 266 257 256 267 274 280 289 293 287 283 267 235 213 219 213 210 207 197 190 188 188 195 197 196 197 217 218 217 215 216 217 215 216 226 232 226 231 238 237 240 234 236 235 210 200 211 208 210 205 180 172 172 176 178 179 177 177 179 179 179 181 185 188 190 193
350 349 347 346 346 347 350 350 351 356 356 357 358 6 14 3 358 329 324 318 302 290 273 274 270 260 266 271 276 286 296 291 278 255 230 215 223 215 206 201 192 193 195 185 182 195 198 214 226 218 212 211 209 213 216 220 231 238 236 239 242 236 241 233 235 237 207 200 221 209 210 212 197 183 175 176 178 179 177 177 180 181 180 182 186 189 192 194
349 347 346 345 345 348 352 351 351 358 357 356 0 7 8 356 349 332 328 314 303 303 288 285 280 265 268 270 271 275 277 280 272 249 223 217 228 210 194 195 191 198 190 181 183 189 201 227 226 210 199 207 201 201 212 223 229 236 240 242 243 234 250 248 240 239 211 201 223 205 206 218 211 189 172 175 180 181 180 180 182 182 181 184 186 189 192 192
347 345 345 346 344 349 355 352 351 354 351 355 357 357 357 350 346 342 337 312 303 310 309 305 288 272 275 275 274 269 252 249 260 248 221 216 227 206 195 196 192 200 189 184 193 187 203 228 218 197 195 207 205 198 203 218 228 231 234 234 242 234 237 251 244 244 227 214 213 198 201 216 213 193 172 177 180 181 183 184 184 182 183 186 188 189 190 190
347 344 344 345 342 349 357 352 351 357 357 2 358 356 357 352 351 348 338 306 291 310 328 352 334 311 312 318 313 267 240 239 241 239 220 216 223 204 203 204 190 206 201 190 196 203 223 211 171 187 207 207 209 204 196 206 220 227 232 229 235 235 232 240 250 271 271 247 219 191 196 223 208 188 176 181 180 180 184 186 186 185 186 187 188 189 189 190
346 342 342 345 342 347 357 356 356 1 1 3 1 359 0 357 353 344 334 306 280 295 333 15 29 10 4 1 347 283 243 249 240 237 228 223 220 202 205 207 197 212 205 194 196 212 235 200 162 185 206 208 214 211 199 199 208 222 230 230 230 239 242 243 248 267 289 277 239 186 188 241 215 188 179 180 181 181 183 183 185 187 187 185 185 188 190 192
344 340 340 344 344 346 358 3 360 359 358 359 1 360 359 357 348 339 333 331 302 276 340 1 9 3 356 351 342 307 240 274 258 250 244 233 224 209 207 205 205 218 201 194 201 213 229 207 181 188 197 206 216 219 208 198 201 221 222 226 231 239 248 249 246 235 231 261 248 199 190 209 221 199 182 176 182 185 184 184 185 187 187 185 186 189 190 191
343 338 337 344 346 350 2 4 358 358 354 352 358 356 353 351 343 334 333 136 327 319 350 2 3 348 345 347 348 343 217 316 292 251 241 233 228 223 223 207 200 215 192 187 216 209 201 202 203 201 196 202 212 217 209 197 206 222 202 214 231 237 245 248 247 238 235 270 281 227 195 180 197 205 186 176 182 186 187 190 189 186 185 186 189 189 189 191
342 336 334 341 349 356 3 0 356 355 352 353 356 352 347 345 336 331 14 131 337 353 354 349 347 340 342 346 352 5 306 318 319 253 239 228 225 225 229 215 201 210 196 197 216 192 184 199 203 205 204 204 209 212 204 198 213 218 180 201 226 236 245 246 245 252 253 273 294 262 204 191 207 205 188 178 183 188 189 191 192 188 186 188 190 190 190 192
342 334 331 337 347 357 1 360 354 352 355 358 352 345 342 341 335 335 89 68 337 10 356 340 344 344 346 346 348 357 339 322 326 310 257 223 222 226 232 222 205 213 217 217 223 194 185 201 198 206 217 209 210 214 202 201 213 210 193 204 218 232 242 239 233 242 244 241 254 248 217 219 246 213 187 179 185 189 191 192 193 191 189 189 190 190 191 192
343 333 330 333 340 355 0 1 356 353 359 356 348 346 343 340 347 68 55 3 330 357 352 352 351 345 346 345 339 351 348 329 341 340 303 224 216 221 233 238 221 221 232 227 227 226 222 205 195 206 224 211 204 209 205 206 208 198 205 221 226 233 241 236 224 217 220 240 240 232 218 214 250 237 193 185 186 186 189 193 193 192 191 191 191 190 191 191
344 333 330 328 333 348 347 354 0 0 358 353 348 346 342 338 51 97 15 338 314 346 354 355 350 346 346 341 329 341 342 334 355 357 334 273 216 208 223 236 220 216 243 241 228 229 233 220 199 203 214 209 199 204 205 206 205 201 203 215 231 254 266 247 220 192 204 239 243 223 215 209 233 251 211 200 191 185 186 189 191 192 191 192 192 191 191 192
347 337 337 328 328 342 334 344 358 356 353 355 345 339 340 7 48 99 321 324 327 6 7 350 344 343 332 324 333 342 340 340 357 360 343 326 275 205 201 206 198 205 226 237 228 220 225 230 225 208 209 208 203 201 203 202 202 205 204 198 205 223 245 231 219 204 207 237 236 196 197 221 230 237 218 211 206 193 188 187 188 191 189 191 193 191 191 191
352 346 352 334 321 342 344 346 352 349 349 350 340 333 4 88 21 350 309 324 336 348 353 345 337 330 323 333 4 353 342 358 360 355 348 342 336 250 213 207 188 196 214 214 209 214 222 227 226 223 210 203 206 202 190 199 197 198 204 195 188 194 209 220 227 226 204 236 239 181 181 236 246 249 217 203 212 203 197 193 191 191 189 189 191 190 190 191
356 350 2 2 336 345 351 348 347 345 346 344 338 342 58 80 323 329 326 321 321 327 345 344 327 324 338 355 10 3 354 359 357 354 350 347 349 343 265 226 202 207 222 203 200 208 220 226 216 220 208 185 204 209 182 182 191 201 202 190 193 197 193 196 209 213 199 241 252 187 185 205 202 234 216 197 201 202 205 200 192 193 192 189 189 189 188 190
359 351 356 16 6 354 354 353 351 346 339 343 348 17 62 90 242 307 327 313 314 331 345 338 328 336 355 358 6 9 5 350 350 350 357 355 341 347 342 292 266 354 323 243 238 212 224 239 209 213 219 187 200 208 185 175 190 204 195 187 208 197 166 180 218 196 149 193 249 205 201 210 203 246 249 212 204 205 207 191 179 191 194 187 185 187 189 191
2 5 6 19 11 358 353 347 347 338 331 350 16 0 261 171 209 255 321 329 322 339 342 337 344 346 346 348 354 1 359 350 351 351 355 343 323 354 11 4 22 30 29 344 291 267 232 243 203 197 218 217 209 202 190 186 180 188 197 202 199 167 156 198 248 232 128 174 244 236 246 277 263 276 276 243 227 220 206 174 168 185 188 183 184 187 190 191
3 16 49 36 9 356 351 338 328 322 322 11 66 282 241 172 204 214 326 325 308 339 347 344 1 353 345 346 344 355 357 352 360 359 342 324 326 17 16 0 22 30 20 2 289 280 309 266 235 204 210 219 219 212 205 197 172 164 201 197 145 129 167 176 207 258 160 186 255 257 245 244 195 244 261 237 232 235 206 176 174 180 178 180 185 188 191 192
358 11 75 29 355 349 353 344 318 305 310 58 285 282 287 132 276 16 1 341 314 1 8 342 1 355 342 341 338 354 358 356 2 352 335 327 341 26 21 354 9 14 2 352 316 292 338 298 254 228 212 208 210 214 219 209 195 186 187 170 145 171 199 172 174 205 186 192 256 276 255 229 196 220 234 219 226 234 215 179 176 179 176 181 186 189 191 191
358 0 50 5 347 339 345 344 326 299 295 79 252 271 290 251 337 16 24 20 354 11 15 347 6 358 337 342 341 353 4 0 353 342 338 345 326 356 22 10 348 355 357 353 332 314 329 308 269 255 233 205 194 201 215 212 205 191 164 165 176 186 183 175 183 176 161 189 218 251 269 245 228 218 213 217 220 224 219 182 174 180 179 182 186 190 191 189
0 354 348 354 349 334 326 335 340 324 171 192 215 244 303 305 339 1 32 43 28 30 30 356 8 358 333 341 341 348 357 344 346 338 312 324 319 322 19 22 352 342 348 348 329 322 331 327 296 293 288 253 203 198 209 209 200 185 171 180 188 174 147 174 204 174 147 158 192 202 242 252 245 226 222 224 218 219 220 192 175 179 180 183 188 190 190 190
2 348 328 350 353 341 329 334 358 15 206 212 228 298 328 359 344 346 26 36 28 54 49 23 23 1 325 337 346 340 333 325 342 332 289 315 335 319 359 6 353 340 342 346 347 340 341 350 302 298 317 285 241 216 207 206 204 189 177 184 188 172 144 175 221 225 170 162 170 175 224 256 246 222 223 226 216 217 221 200 176 177 180 184 188 189 189 190
0 331 330 349 351 350 350 0 15 4 354 352 347 335 339 13 358 351 17 21 18 56 48 27 26 352 317 328 335 320 321 329 321 309 286 308 319 304 333 344 343 343 343 333 327 325 315 302 271 269 277 264 263 261 218 204 203 193 179 182 187 177 159 179 207 208 191 208 194 165 226 266 254 216 213 225 220 214 215 204 174 175 181 185 188 189 189 190
344 318 333 349 349 2 23 42 8 11 353 347 348 341 342 10 25 6 2 3 12 61 43 18 12 346 325 313 315 319 350 5 280 290 304 300 303 308 321 331 335 340 344 326 319 327 320 316 293 289 283 262 267 277 254 213 201 196 192 180 184 192 182 174 185 177 183 212 203 188 253 268 268 228 205 225 226 214 210 200 175 172 182 186 186 188 188 190
329 314 325 345 355 24 50 24 353 6 339 346 349 341 346 4 30 11 350 349 18 66 58 14 1 329 308 301 314 330 7 40 248 294 303 287 301 314 315 325 331 332 334 320 325 337 333 340 355 318 292 254 262 275 272 227 203 200 201 186 188 195 183 157 152 159 186 208 183 162 233 255 269 281 277 243 220 207 204 191 173 170 181 185 185 186 188 189
332 314 312 339 358 39 57 27 15 355 337 348 344 336 349 351 9 25 11 1 23 28 349 318 331 314 311 327 334 334 349 39 237 281 283 287 306 311 315 322 324 319 305 302 312 328 318 293 287 288 261 219 218 223 250 251 219 211 200 192 191 189 181 169 144 153 199 214 183 171 224 258 285 306 312 277 199 188 184 172 168 171 179 184 183 184 187 187
333 314 308 339 359 34 29 12 14 359 341 351 338 337 347 331 333 14 10 4 19 4 328 291 307 317 329 347 341 329 330 336 319 296 286 303 313 307 316 318 316 314 309 309 325 339 299 268 251 247 257 260 256 263 279 298 285 236 202 192 189 183 183 180 151 163 192 183 194 216 222 253 287 296 306 309 184 163 151 141 158 169 176 180 181 183 185 186
331 320 347 348 357 22 10 357 356 349 336 338 326 317 330 320 319 352 352 343 0 354 323 273 312 334 356 358 341 320 322 320 311 301 294 308 310 298 309 310 304 315 329 341 354 344 290 284 274 266 279 281 274 277 280 285 284 254 211 191 185 179 183 188 184 187 168 147 219 241 209 217 262 274 288 300 158 138 144 149 162 169 172 175 179 182 184 184
332 315 347 353 335 9 5 337 332 333 331 335 322 285 316 331 343 351 348 344 349 354 359 320 326 338 349 354 335 309 318 317 294 293 296 307 307 305 314 306 290 340 357 350 346 344 287 275 285 301 307 296 280 275 271 267 279 268 211 185 186 187 183 190 200 189 155 160 219 237 194 193 236 260 262 260 245 168 171 166 167 170 171 173 175 180 183 183
339 319 331 345 334 329 321 311 315 323 328 330 316 295 328 346 349 344 348 349 341 343 350 331 315 326 323 323 317 297 319 321 293 296 293 284 298 312 329 314 305 2 2 340 332 357 325 272 302 316 307 295 287 282 273 273 307 311 217 183 186 195 190 185 194 189 174 189 211 210 193 205 247 263 251 232 59 61 152 151 159 167 169 171 174 177 181 183
336 325 321 331 327 310 306 308 317 324 322 315 303 322 336 338 343 346 346 337 320 324 344 335 319 314 300 295 300 282 301 306 292 294 284 259 279 298 348 314 303 329 341 331 323 348 346 293 316 319 301 294 317 338 327 307 320 351 302 183 179 194 197 187 183 188 199 211 173 141 145 275 310 289 8 66 67 70 90 109 137 163 169 168 170 176 181 183
302 298 308 319 317 301 302 308 314 310 305 305 313 336 336 324 335 355 340 318 320 335 334 324 319 313 299 301 292 286 307 303 288 290 290 283 279 255 194 224 273 301 323 324 308 315 332 297 309 323 311 301 334 351 334 311 327 41 19 354 309 182 184 177 138 90 280 186 130 115 119 144 249 133 68 55 57 59 55 64 105 152 168 169 170 175 181 183
297 294 302 308 301 284 291 291 290 291 295 315 319 320 317 311 320 348 342 310 323 326 311 304 310 316 318 305 289 301 310 302 291 290 292 289 283 262 232 232 245 260 282 304 299 289 297 299 312 334 321 301 327 335 321 314 6 48 8 341 346 72 88 67 36 22 12 12 150 144 160 196 217 102 77 62 54 54 44 40 66 109 142 157 165 171 177 181